Weather History for Carlsbad, CA

Change the Weather History Date:

Saturday, July 27, 2013

  Actual Average Record
Temperature  
Mean Temperature 67 °F -  
Max Temperature 70 °F 72 °F 86 °F (2006)
Min Temperature 64 °F 61 °F 59 °F (2000)
Cooling Degree Days 2    
Growing Degree Days 17 (Base 50)    
Moisture  
Dew Point 61 °F    
Average Humidity 79    
Maximum Humidity 84    
Minimum Humidity 71    
Precipitation  
Precipitation 0.00 in - - ()
Sea Level Pressure  
Sea Level Pressure 29.96 in    
Wind  
Wind Speed 3 mph (WSW)    
Max Wind Speed 9 mph    
Max Gust Speed -    
Visibility 10 miles    
Events      
Averages and records for this station are not official NWS values.
T = Trace of Precipitation, MM = Missing Value Source: NWS Daily Summary

Daily Weather History Graph

Daily Weather History Graph

Search for Another Location

Airport:

Trip Planner

Search our weather history database for the weather conditions in past years. The results will help you decide how hot, cold, wet, or windy it might be!

Date:

Astronomy

Jul. 27, 2013 Rise Set
Actual Time 5:59 AM PDT 7:51 PM PDT
Civil Twilight 5:31 AM PDT 8:19 PM PDT
Nautical Twilight 4:58 AM PDT 8:52 PM PDT
Astronomical Twilight 4:23 AM PDT 9:27 PM PDT
Moon 11:04 PM PDT (7/27) 11:22 AM PDT (7/27)
Length of Visible Light 14h 47m
Length of Day
13h 52m
Waning Gibbous, 70% of the Moon is Illuminated
Jul 27
Waning Gibbous
Jul 29
Last Quarter
Aug 6
New
Aug 14
First Quarter
Aug 20
Full

Hourly Weather History & Observations

Time (PDT) Temp. Dew Point Humidity Pressure Visibility Wind Dir Wind Speed Gust Speed Precip Events Conditions
12:53 AM 66.9 °F 61.0 °F 81% 30.01 in 9.0 mi Calm Calm - N/A   Overcast
1:53 AM 66.9 °F 61.0 °F 81% 30.01 in 10.0 mi Variable 3.5 mph - N/A   Overcast
2:53 AM 66.9 °F 61.0 °F 81% 30.00 in 10.0 mi Calm Calm - N/A   Overcast
3:53 AM 66.9 °F 61.0 °F 81% 29.99 in 10.0 mi Calm Calm - N/A   Overcast
4:53 AM 66.9 °F 61.0 °F 81% 29.99 in 10.0 mi WSW 3.5 mph - N/A   Overcast
5:53 AM 66.9 °F 61.0 °F 81% 29.99 in 10.0 mi Calm Calm - N/A   Overcast
6:53 AM 66.9 °F 61.0 °F 81% 30.00 in 8.0 mi Calm Calm - N/A   Overcast
7:53 AM 66.9 °F 61.0 °F 81% 29.99 in 7.0 mi Calm Calm - N/A   Overcast
8:53 AM 68.0 °F 61.0 °F 78% 30.00 in 8.0 mi Calm Calm - N/A   Overcast
9:53 AM 68.0 °F 62.1 °F 81% 29.99 in 9.0 mi West 4.6 mph - N/A   Overcast
10:32 AM 69.8 °F 62.6 °F 78% 29.99 in 10.0 mi Variable 6.9 mph - N/A   Overcast
10:53 AM 70.0 °F 62.1 °F 76% 29.99 in 10.0 mi WSW 9.2 mph - N/A   Overcast
11:01 AM 69.8 °F 62.6 °F 78% 29.99 in 10.0 mi WSW 8.1 mph - N/A   Overcast
11:53 AM 68.0 °F 61.0 °F 78% 29.98 in 9.0 mi West 6.9 mph - N/A   Overcast
12:53 PM 68.0 °F 61.0 °F 78% 29.97 in 10.0 mi WSW 8.1 mph - N/A   Overcast
1:53 PM 69.1 °F 61.0 °F 75% 29.96 in 10.0 mi SW 8.1 mph - N/A   Overcast
2:34 PM 69.8 °F 60.8 °F 73% 29.95 in 10.0 mi SW 6.9 mph - N/A   Overcast
2:53 PM 70.0 °F 60.1 °F 71% 29.94 in 10.0 mi WSW 8.1 mph - N/A   Overcast
3:53 PM 69.1 °F 60.1 °F 73% 29.92 in 10.0 mi West 8.1 mph - N/A   Overcast
4:53 PM 68.0 °F 60.1 °F 76% 29.91 in 10.0 mi Variable 6.9 mph - N/A   Overcast
5:21 PM 66.2 °F 60.8 °F 83% 29.91 in 10.0 mi WSW 6.9 mph - N/A   Overcast
5:53 PM 66.9 °F 60.1 °F 79% 29.90 in 10.0 mi WSW 6.9 mph - N/A   Overcast
6:53 PM 66.0 °F 59.0 °F 78% 29.90 in 10.0 mi SSW 3.5 mph - N/A   Overcast
7:53 PM 64.9 °F 59.0 °F 81% 29.91 in 10.0 mi WSW 6.9 mph - N/A   Overcast
8:53 PM 64.0 °F 57.9 °F 80% 29.91 in 10.0 mi WSW 4.6 mph - N/A   Overcast
9:53 PM 64.0 °F 59.0 °F 84% 29.93 in 10.0 mi Calm Calm - N/A   Overcast
10:53 PM 64.0 °F 59.0 °F 84% 29.92 in 10.0 mi Calm Calm - N/A   Overcast
11:53 PM 64.0 °F 57.9 °F 80% 29.91 in 10.0 mi ESE 3.5 mph - N/A   Overcast